Dewpoint
71 73 72 73 74 74 74 73 74 72 76 74 74 74 75 73 75 75 74 73 74 73 73 72 73 70 70 72 73 73 72 71 68 68 71 70 71 71 73 71 73 74 73
71 71 72 73 73 73 74 73 74 74 75 75 74 74 74 74 74 74 73 72 73 74 73 73 72 73 73 73 73 73 73 72 70 69 69 71 72 70 69 71 72 75 72
71 71 72 72 72 72 72 73 74 75 74 74 74 74 74 75 74 74 74 73 73 74 74 74 73 73 72 73 74 74 74 73 72 72 71 70 71 71 71 68 68 68 69
71 70 71 71 72 72 71 72 72 75 74 74 75 74 75 75 75 75 75 74 74 74 74 75 74 74 73 73 74 74 73 73 73 73 73 72 71 68 67 67 68 68 68
70 69 69 70 71 71 71 72 71 73 74 73 74 75 75 74 75 74 74 74 74 74 74 74 74 74 73 73 73 73 74 73 73 72 70 69 69 69 68 70 69 70 71
68 69 69 71 70 71 71 71 73 72 72 74 74 74 74 75 70 67 71 74 73 73 72 73 74 73 72 69 68 69 71 73 71 70 69 69 70 70 71 70 70 70 68
69 70 70 71 70 71 71 71 70 73 72 72 75 74 73 73 68 65 66 69 72 73 73 72 73 72 70 71 69 67 66 65 66 70 69 69 69 70 70 70 70 69 68
71 71 72 71 71 72 72 71 73 72 74 73 73 73 73 73 67 65 65 68 70 70 72 73 73 72 72 71 71 71 71 71 71 69 68 69 70 71 70 71 71 70 71
71 72 73 73 73 73 72 73 74 74 73 72 72 72 72 72 65 63 64 69 71 71 71 72 73 72 69 66 70 70 70 70 68 65 64 65 65 65 66 67 68 67 68
69 70 72 72 72 72 73 73 73 73 72 72 70 70 68 72 65 62 63 69 70 71 72 72 66 68 65 63 68 70 70 70 70 71 72 71 70 71 65 67 69 67 67
69 70 70 71 70 70 71 70 70 70 70 70 69 68 70 69 65 57 58 66 69 70 70 72 72 61 60 60 61 66 67 69 69 71 72 73 73 71 73 72 71 70 69
69 69 69 69 70 70 69 69 69 69 69 69 67 67 69 67 60 58 57 58 62 68 68 67 67 61 57 57 59 61 59 60 65 67 68 69 70 71 73 71 69 67 67
68 67 68 68 69 69 69 68 68 67 66 64 65 65 66 68 64 56 56 57 60 67 68 66 60 57 56 60 59 57 57 64 66 68 69 70 70 72 70 66 65 65 64
65 66 68 68 68 69 70 69 68 68 68 68 67 67 65 66 61 60 61 62 62 64 63 64 63 62 60 61 63 66 66 68 69 69 70 71 72 71 71 68 66 65 63
58 65 62 62 66 67 67 66 66 64 60 66 64 64 63 62 59 53 54 59 61 60 57 60 64 67 68 66 67 68 69 70 70 70 70 70 70 70 70 69 67 65 63
57 57 55 53 64 65 63 62 55 52 48 46 46 55 58 52 48 46 44 44 44 46 53 65 63 62 62 63 62 63 64 63 63 65 66 67 68 70 69 69 66 64 63
56 56 53 53 53 56 62 62 60 59 54 50 47 47 46 45 48 46 44 46 46 48 60 60 59 59 59 58 58 58 57 58 59 61 62 63 64 66 68 69 66 64 63
53 53 52 55 53 53 54 53 55 60 59 59 53 52 49 44 44 44 43 48 58 56 59 58 58 58 57 56 56 55 56 56 56 58 59 60 61 63 65 67 67 65 64
51 51 52 48 48 51 52 51 53 54 55 59 59 53 51 47 46 45 47 58 58 58 58 57 56 55 54 55 54 54 54 53 54 55 55 55 57 59 62 65 67 60 61
52 53 52 49 48 49 52 54 53 52 53 54 55 58 56 53 53 56 58 57 56 56 56 56 55 54 54 54 53 52 52 52 51 52 52 53 54 56 60 63 64 64 63
47 48 52 50 50 49 48 49 48 49 50 51 53 55 52 50 49 50 58 56 55 55 55 55 54 54 53 52 52 52 51 50 48 48 50 51 52 54 57 61 63 64 64
42 43 45 42 43 43 43 44 48 48 46 46 48 52 44 47 50 51 54 55 56 55 54 54 53 54 52 51 50 47 46 42 41 43 45 48 50 53 55 57 61 62 63
41 41 42 43 42 43 41 42 43 47 46 46 48 49 49 48 49 51 50 50 50 55 54 52 50 50 50 50 47 44 39 34 37 39 43 43 47 52 54 56 58 61 61
40 41 41 41 42 41 42 43 44 42 44 44 41 41 44 46 47 44 46 48 47 50 53 51 50 48 47 46 45 40 32 30 31 34 33 37 43 52 53 53 55 57 58
39 41 40 41 42 43 44 43 44 43 42 41 43 43 44 45 43 42 44 46 46 45 46 44 45 44 42 41 35 31 29 29 29 31 31 31 35 47 51 51 52 54 55
40 41 42 43 44 44 44 43 43 43 42 41 40 43 43 43 42 41 42 44 45 45 43 43 41 42 40 39 35 31 30 29 29 30 29 31 35 41 48 48 48 52 53
Lifted_Index
-4 -4 -4 -4 -4 -5 -5 -5 -5 -5 -5 -5 -5 -5 -5 -4 -4 -5 -4 -4 -5 -5 -4 -4 -4 -5 -4 -5 -6 -6 -7 -7 -7 -7 -7 -7 -7 -8 -8 -7 -7 -7 -7
-5 -5 -5 -5 -4 -5 -5 -5 -5 -5 -5 -5 -5 -5 -5 -5 -5 -5 -4 -4 -5 -5 -5 -5 -5 -5 -5 -5 -6 -6 -7 -7 -7 -7 -7 -7 -7 -7 -7 -6 -6 -6 -6
-5 -5 -5 -5 -5 -5 -5 -5 -5 -5 -5 -5 -5 -5 -5 -5 -5 -5 -5 -5 -5 -5 -5 -5 -5 -5 -5 -5 -6 -7 -7 -7 -6 -6 -6 -7 -7 -7 -6 -5 -5 -5 -5
-5 -5 -5 -5 -5 -5 -5 -4 -5 -5 -5 -5 -5 -5 -5 -5 -5 -5 -5 -5 -5 -5 -5 -5 -6 -6 -6 -6 -6 -7 -7 -7 -6 -6 -6 -6 -6 -6 -5 -5 -5 -5 -6
-4 -4 -5 -5 -6 -5 -5 -5 -5 -5 -5 -5 -5 -6 -6 -5 -5 -5 -5 -5 -5 -5 -5 -5 -5 -6 -6 -6 -6 -7 -6 -6 -6 -6 -6 -6 -5 -5 -5 -5 -5 -6 -6
-4 -4 -5 -5 -5 -5 -5 -5 -5 -5 -5 -5 -6 -6 -6 -6 -6 -6 -6 -5 -5 -5 -5 -5 -5 -5 -5 -6 -6 -6 -6 -6 -6 -6 -5 -5 -5 -6 -6 -5 -6 -6 -6
-5 -5 -5 -5 -6 -6 -6 -5 -5 -5 -5 -5 -6 -6 -6 -6 -6 -6 -6 -5 -5 -5 -5 -5 -5 -5 -5 -5 -5 -5 -5 -5 -5 -5 -5 -5 -5 -5 -5 -6 -6 -6 -5
-6 -6 -6 -6 -6 -6 -6 -6 -6 -6 -6 -6 -6 -6 -5 -6 -6 -6 -6 -6 -5 -5 -5 -5 -5 -5 -5 -5 -5 -5 -5 -5 -5 -4 -4 -4 -5 -5 -5 -6 -6 -6 -5
-6 -6 -6 -7 -7 -7 -7 -7 -7 -7 -6 -6 -6 -5 -5 -4 -5 -5 -5 -5 -5 -5 -5 -5 -5 -5 -5 -5 -5 -5 -5 -5 -4 -4 -5 -5 -6 -6 -6 -6 -6 -6 -5
-5 -5 -6 -6 -7 -7 -7 -6 -6 -6 -6 -5 -5 -4 -3 -3 -4 -4 -4 -4 -4 -4 -5 -5 -5 -5 -5 -5 -5 -5 -4 -4 -5 -5 -6 -6 -6 -6 -7 -7 -7 -6 -6
-4 -4 -5 -5 -6 -6 -6 -5 -5 -5 -4 -4 -3 -3 -3 -3 -3 -2 -2 -2 -2 -3 -3 -3 -3 -4 -5 -5 -5 -5 -5 -5 -5 -5 -6 -6 -6 -6 -7 -7 -7 -7 -6
-4 -4 -4 -4 -4 -4 -4 -4 -3 -3 -3 -3 -3 -3 -2 -2 -2 -1 -0 0 -0 -1 -1 -1 -1 -2 -4 -5 -5 -5 -5 -5 -5 -5 -5 -5 -5 -6 -7 -7 -7 -7 -7
-3 -3 -3 -3 -3 -4 -3 -3 -3 -3 -3 -3 -3 -3 -2 -2 -1 -1 -0 0 1 0 0 0 0 -1 -3 -4 -5 -6 -6 -6 -6 -6 -6 -6 -6 -6 -7 -7 -7 -6 -6
-2 -2 -2 -2 -3 -3 -3 -3 -3 -3 -3 -3 -3 -3 -2 -2 -1 -1 -1 -1 -0 -1 -1 -1 -1 -2 -4 -5 -6 -6 -6 -6 -6 -6 -6 -6 -6 -6 -6 -7 -6 -6 -6
-1 -1 -1 -1 -2 -3 -3 -2 -2 -2 -2 -2 -2 -2 -2 -1 -1 -0 -0 -1 -1 -1 -2 -2 -3 -3 -4 -5 -5 -6 -6 -6 -6 -6 -6 -5 -5 -5 -6 -6 -6 -6 -5
0 -0 -0 -0 -1 -1 -1 -1 -0 -0 -0 0 0 0 1 1 1 1 1 0 -0 -1 -2 -2 -2 -3 -3 -4 -4 -4 -5 -5 -5 -5 -4 -4 -4 -4 -5 -6 -6 -6 -5
2 1 1 1 1 0 -0 -0 0 1 1 1 1 2 2 3 3 3 2 1 1 0 -0 -1 -1 -2 -2 -2 -2 -2 -3 -3 -3 -3 -3 -2 -2 -3 -3 -4 -5 -6 -6
3 3 3 2 2 2 1 1 1 1 1 1 1 1 2 3 3 3 2 2 2 2 2 2 1 1 1 1 0 -0 -1 -1 -1 -1 -1 -1 -1 -1 -2 -3 -4 -5 -5
3 3 3 3 4 3 3 2 2 2 1 1 1 1 1 2 2 3 3 3 3 3 4 4 4 3 3 3 3 2 2 1 1 0 -0 -1 -1 -1 -2 -2 -3 -4 -4
2 3 3 4 4 4 4 3 3 2 2 2 1 1 1 2 2 3 3 3 4 4 5 5 6 6 5 5 4 4 3 3 2 1 1 0 -0 -1 -1 -2 -2 -3 -3
1 2 3 3 4 4 4 4 3 3 3 3 2 2 2 2 3 3 3 3 3 4 5 6 7 7 7 7 7 6 5 5 4 3 2 1 1 0 -0 -1 -1 -2 -2
2 2 2 3 3 4 4 4 3 3 3 3 3 3 3 3 3 4 3 3 3 4 5 6 7 8 8 9 9 9 8 7 6 5 4 3 2 2 1 0 -0 -1 -1
5 4 4 4 4 4 4 4 4 4 4 4 4 4 4 4 4 4 4 4 4 4 4 6 7 8 9 10 11 11 11 10 10 9 8 6 5 3 2 1 0 -0 -1
7 7 6 6 6 6 5 5 5 4 4 5 5 5 5 5 5 5 4 4 4 4 5 6 7 8 9 10 11 11 12 12 13 13 12 11 8 6 5 3 2 1 0
8 8 8 8 7 7 6 5 5 5 5 5 5 5 5 5 5 5 5 5 5 5 5 6 6 7 8 9 10 10 11 12 13 13 14 13 12 10 8 6 3 2 1
8 8 8 7 7 7 6 5 5 5 5 5 5 6 6 5 5 5 5 5 5 5 5 5 6 7 8 9 9 9 10 11 11 12 14 14 13 12 10 8 5 3 2